User: anonymous   Login
Location: Heidgraben
(53.7081°N, 9.6576°E)
Time: 08:54:49
(UTC+00:00)
Language:

Cosmos 2221 - Orbit

View from above orbital plane
View from above orbital plane
View from above satellite
View from above satellite

Ground track
Ground track

The orbit data is extracted from the following two-line orbital elements,

1 22236U 92080A   20272.78553498 +.00000241 +00000-0 +23611-4 0  9990
2 22236 082.5115 006.0118 0016104 343.9166 016.1538 14.87950437484647
Epoch (UTC): 28 September 2020 18:51:10
Eccentricity: 0.0016104
inclination: 82.5115°
perigee height: 593 km
apogee height: 615 km
right ascension of ascending node: 6.0118°
argument of perigee: 343.9166°
revolutions per day: 14.87950437
mean anomaly at epoch: 16.1538°
orbit number at epoch: 48464

The dashed part of the orbit path shows where the satellite is in the earth's shadow,  

DLR